Weather reports worldwide

Advertisment
Cluanie Inn No 3, United Kingdom (99117): temperature & dewpoint: 21.04.2017 00:00:00 - 27.04.2017 00:00:00 (BST)Cluanie Inn No 3, United Kingdom (99117): precipitation: 21.04.2017 00:00:00 - 27.04.2017 00:00:00 (BST)
Date & Time tt [°C] td [°C] rr [mm]
27.04.2017 00:00:00 - - -
26.04.2017 23:00:00 5,8 4,5 0,2
26.04.2017 22:00:00 6,4 2,4 0,0
26.04.2017 21:00:00 6,6 2,0 0,0
26.04.2017 20:00:00 6,8 2,2 0,0
26.04.2017 19:00:00 7,2 1,7 0,0
26.04.2017 18:00:00 7,3 1,4 0,0
26.04.2017 17:00:00 6,7 1,4 0,0
26.04.2017 16:00:00 6,5 3,6 0,0
26.04.2017 15:00:00 6,8 1,4 0,0
26.04.2017 14:00:00 5,8 2,1 0,0
26.04.2017 13:00:00 4,6 0,6 0,0
26.04.2017 12:00:00 3,6 0,4 0,0
26.04.2017 11:00:00 3,2 0,6 0,0
26.04.2017 10:00:00 2,9 -0,3 0,0
26.04.2017 09:00:00 2,5 -0,1 0,0
26.04.2017 08:00:00 1,8 0,2 0,0
26.04.2017 07:00:00 0,9 -0,3 0,0
26.04.2017 06:00:00 0,5 -0,8 0,0
26.04.2017 05:00:00 1,0 -1,5 0,0
26.04.2017 04:00:00 0,7 -1,2 0,0
26.04.2017 03:00:00 2,1 -4,0 0,0
26.04.2017 02:00:00 2,1 -3,0 0,0
26.04.2017 01:00:00 2,1 -2,2 0,0
26.04.2017 00:00:00 2,2 -2,7 0,0
25.04.2017 23:00:00 1,9 -1,2 0,0
25.04.2017 22:00:00 1,8 -0,7 0,0
25.04.2017 21:00:00 0,7 -0,3 0,0
25.04.2017 20:00:00 2,1 -1,3 0,8
25.04.2017 19:00:00 3,1 -1,0 0,0
25.04.2017 18:00:00 2,8 0,1 0,4
25.04.2017 17:00:00 3,7 -1,3 0,0
25.04.2017 16:00:00 3,8 0,9 0,2
25.04.2017 15:00:00 3,4 0,1 0,0
25.04.2017 14:00:00 4,0 -1,0 0,2
25.04.2017 13:00:00 2,5 -0,6 0,0
25.04.2017 12:00:00 2,8 0,1 1,4
25.04.2017 11:00:00 2,8 -0,8 3,2
25.04.2017 10:00:00 1,1 -0,3 2,6
25.04.2017 09:00:00 1,1 -1,0 1,8
25.04.2017 08:00:00 1,9 -1,7 0,2
25.04.2017 07:00:00 1,5 -1,9 0,2
25.04.2017 06:00:00 1,7 -1,9 0,0
25.04.2017 05:00:00 1,8 -1,7 0,0
25.04.2017 04:00:00 0,7 -0,4 0,0
25.04.2017 03:00:00 0,1 -0,3 0,0
25.04.2017 02:00:00 0,3 -0,7 0,0
25.04.2017 01:00:00 1,9 -3,6 0,0
25.04.2017 00:00:00 1,3 -3,7 0,0
24.04.2017 23:00:00 1,5 -4,8 0,2
24.04.2017 22:00:00 2,1 -2,7 0,0
24.04.2017 21:00:00 1,7 -0,4 0,0
24.04.2017 20:00:00 0,4 0,1 0,2
24.04.2017 19:00:00 0,3 -0,5 0,4
24.04.2017 18:00:00 0,6 -1,0 0,4
24.04.2017 17:00:00 1,9 -2,8 0,8
24.04.2017 16:00:00 2,6 -2,5 0,0
24.04.2017 15:00:00 2,8 -3,2 0,0
24.04.2017 14:00:00 -0,2 -1,6 0,6
24.04.2017 13:00:00 0,5 -0,8 1,4
24.04.2017 12:00:00 0,6 -0,8 2,0
24.04.2017 11:00:00 1,8 -0,3 1,2
24.04.2017 10:00:00 1,6 0,0 1,2
24.04.2017 09:00:00 2,4 -0,9 0,6
24.04.2017 08:00:00 2,9 -1,6 0,4
24.04.2017 07:00:00 3,1 -1,9 0,0
24.04.2017 06:00:00 3,0 -1,6 0,2
24.04.2017 05:00:00 3,5 -0,9 0,2
24.04.2017 04:00:00 4,0 -1,2 0,0
24.04.2017 03:00:00 4,2 0,7 0,4
24.04.2017 02:00:00 4,5 1,5 0,2
24.04.2017 01:00:00 4,8 1,4 2,0
24.04.2017 00:00:00 4,8 2,9 4,0
23.04.2017 23:00:00 6,6 3,9 3,0
23.04.2017 22:00:00 8,0 4,8 0,8
23.04.2017 21:00:00 8,1 5,0 1,8
23.04.2017 20:00:00 7,2 5,2 0,4
23.04.2017 19:00:00 6,6 4,2 0,4
23.04.2017 18:00:00 7,0 3,7 0,0
23.04.2017 17:00:00 7,1 3,0 0,0
23.04.2017 16:00:00 7,6 2,3 0,0
23.04.2017 15:00:00 7,7 2,7 0,0
23.04.2017 14:00:00 8,1 2,2 0,0
23.04.2017 13:00:00 8,3 1,7 0,0
23.04.2017 12:00:00 6,8 2,4 0,0
23.04.2017 11:00:00 7,3 2,4 0,0
23.04.2017 10:00:00 6,5 2,3 0,0
23.04.2017 09:00:00 6,2 2,7 0,0
23.04.2017 08:00:00 5,6 1,0 0,0
23.04.2017 07:00:00 5,1 0,8 0,0
23.04.2017 06:00:00 4,3 1,1 0,0
23.04.2017 05:00:00 4,5 0,9 0,0
23.04.2017 04:00:00 4,5 1,2 0,0
23.04.2017 03:00:00 4,9 1,6 0,0
23.04.2017 02:00:00 4,0 2,4 -
23.04.2017 01:00:00 3,7 2,1 0,2
23.04.2017 00:00:00 3,2 1,2 0,0
22.04.2017 23:00:00 4,2 1,8 0,0
22.04.2017 22:00:00 4,6 1,6 0,0
22.04.2017 21:00:00 5,3 2,0 0,0
22.04.2017 20:00:00 5,8 1,7 0,0
22.04.2017 19:00:00 5,8 2,2 0,2
22.04.2017 18:00:00 4,3 1,3 0,4
22.04.2017 17:00:00 6,1 1,5 0,0
22.04.2017 16:00:00 6,3 2,2 0,0
22.04.2017 15:00:00 6,9 0,0 0,0
22.04.2017 14:00:00 6,7 0,4 0,0
22.04.2017 13:00:00 7,2 0,8 0,0
22.04.2017 12:00:00 5,9 -0,2 0,0
22.04.2017 11:00:00 5,5 0,4 0,0
22.04.2017 10:00:00 4,7 1,5 0,0
22.04.2017 09:00:00 4,0 2,1 0,2
22.04.2017 08:00:00 3,3 1,4 1,0
22.04.2017 07:00:00 3,1 1,0 0,4
22.04.2017 06:00:00 4,1 0,6 0,0
22.04.2017 05:00:00 4,0 0,3 0,0
22.04.2017 04:00:00 4,5 -1,0 0,0
22.04.2017 03:00:00 3,7 0,4 0,0
22.04.2017 02:00:00 4,2 0,9 0,0
22.04.2017 01:00:00 4,1 2,0 0,0
22.04.2017 00:00:00 3,7 2,5 0,0
21.04.2017 23:00:00 4,8 1,9 0,2
21.04.2017 22:00:00 5,1 1,1 0,0
21.04.2017 21:00:00 5,0 1,3 0,0
21.04.2017 20:00:00 5,6 1,9 0,4
21.04.2017 19:00:00 6,2 2,4 0,0
21.04.2017 18:00:00 7,5 1,8 0,0
21.04.2017 17:00:00 7,7 2,8 0,0
21.04.2017 16:00:00 7,2 2,9 0,0
21.04.2017 15:00:00 8,8 3,1 0,0
21.04.2017 14:00:00 8,0 2,9 0,0
21.04.2017 13:00:00 7,4 4,3 0,4
21.04.2017 12:00:00 6,8 5,5 0,2
21.04.2017 11:00:00 6,8 4,4 1,6
21.04.2017 10:00:00 7,3 4,0 2,2
21.04.2017 09:00:00 7,4 6,0 2,6
21.04.2017 08:00:00 9,3 7,2 3,2
21.04.2017 07:00:00 9,4 7,9 4,4
21.04.2017 06:00:00 9,3 7,8 2,4
21.04.2017 05:00:00 9,6 7,8 1,0
21.04.2017 04:00:00 9,7 7,5 1,8
21.04.2017 03:00:00 9,2 8,0 2,8
21.04.2017 02:00:00 9,6 7,8 0,2
21.04.2017 01:00:00 9,5 7,7 1,0
21.04.2017 00:00:00 9,7 7,6 0,2

tt = temperature
td = dewpoint
rr = precipitation

Next stations